Stations météo

Publicité
Düsseldorf, Allemagne (10400): Température de l'air & dewpoint: 11.12.2018 14:00:00 - 17.12.2018 14:00:00 (CET)Düsseldorf, Allemagne (10400): Température de l'air 5cm & Température de l'air -5cm: 11.12.2018 14:00:00 - 17.12.2018 14:00:00 (CET)Düsseldorf, Allemagne (10400): Température de l'air -20cm & Température de l'air -100cm: 11.12.2018 14:00:00 - 17.12.2018 14:00:00 (CET)Düsseldorf, Allemagne (10400): Vitesse du vent & gusts: 11.12.2018 14:00:00 - 17.12.2018 14:00:00 (CET)Düsseldorf, Allemagne (10400): Direction du vent: 11.12.2018 14:00:00 - 17.12.2018 14:00:00 (CET)Düsseldorf, Allemagne (10400): reduced air pressure: 11.12.2018 14:00:00 - 17.12.2018 14:00:00 (CET)Düsseldorf, Allemagne (10400): visibility: 11.12.2018 14:00:00 - 17.12.2018 14:00:00 (CET)Düsseldorf, Allemagne (10400): Ensoleillement: 11.12.2018 14:00:00 - 17.12.2018 14:00:00 (CET)Düsseldorf, Allemagne (10400): Quantités de précipitations: 11.12.2018 14:00:00 - 17.12.2018 14:00:00 (CET)
Date & Time tt [°C] td [°C] tt 5cm [°C] tt -5cm [°C] tt -20cm [°C] tt -100cm [°C] ff [km/h] ff [knt] fx [km/h] fx [knt] dd ppp [hPa] vv [km] sd [min] rr [mm]
17.12.2018 14:00:00 - - - - - - - - - - - - - - -
17.12.2018 13:00:00 6,9 5,4 6,3 4,6 3,0 6,6 22 12 33 18 SW 1018,3 10 0 0,0
17.12.2018 12:00:00 6,2 4,9 6,1 4,1 2,8 6,6 18 10 28 15 S 1018,0 10 0 0,4
17.12.2018 11:00:00 5,5 4,1 4,9 3,4 2,6 6,6 22 12 33 18 S 1017,8 10 0 0,0
17.12.2018 10:00:00 5,1 3,9 4,5 3,0 2,4 6,7 22 12 34 18 SSE 1017,1 10 0 0,0
17.12.2018 09:00:00 4,5 3,6 4,0 2,6 2,3 6,7 18 10 34 18 SSE 1016,4 10 0 1,2
17.12.2018 08:00:00 4,1 3,1 3,6 2,3 2,1 6,7 24 13 36 20 SSE 1015,7 10 0 0,6
17.12.2018 07:00:00 4,0 2,3 3,3 2,0 2,0 6,7 24 13 39 21 SSE 1015,3 10 0 0,1
17.12.2018 06:00:00 3,5 1,7 3,2 1,6 1,9 6,7 24 13 36 19 SSE 1014,8 10 0 0,0
17.12.2018 05:00:00 3,4 1,6 2,6 1,2 1,8 6,7 21 11 31 17 SSE 1014,6 10 0 0,0
17.12.2018 04:00:00 3,1 1,5 2,1 1,0 1,8 6,8 18 10 25 13 SSE 1014,5 10 0 0,0
17.12.2018 03:00:00 2,7 1,1 1,4 1,1 1,7 6,8 14 7 22 12 SSE 1014,4 15 0 0,0
17.12.2018 02:00:00 2,9 1,1 2,4 1,1 1,6 6,8 16 9 22 12 SE 1014,3 10 0 0,0
17.12.2018 01:00:00 2,8 1,0 2,5 0,7 1,6 6,8 18 10 33 18 S 1014,7 10 0 0,0
17.12.2018 00:00:00 2,4 0,7 1,3 0,5 1,6 6,8 15 8 28 15 SSE 1014,4 12 0 0,0
16.12.2018 23:00:00 2,7 0,7 2,1 0,4 1,6 6,8 19 10 27 15 SSE 1014,0 12 0 0,0
16.12.2018 22:00:00 2,6 0,7 2,1 0,4 1,6 6,8 16 9 26 14 SSE 1013,9 12 0 0,0
16.12.2018 21:00:00 2,7 0,6 2,3 0,4 1,6 6,9 16 9 22 12 SSE 1013,4 10 0 0,0
16.12.2018 20:00:00 2,5 0,4 2,2 0,3 1,5 6,9 16 9 24 13 SSE 1013,0 10 0 0,0
16.12.2018 19:00:00 2,2 0,1 1,9 0,3 1,5 6,9 15 8 23 13 SSE 1012,8 9 0 0,0
16.12.2018 18:00:00 1,9 0,0 1,6 0,3 1,5 6,9 15 8 23 12 SSE 1012,5 8 0 0,0
16.12.2018 17:00:00 1,5 -0,3 1,3 0,2 1,5 6,9 15 8 25 13 SSE 1012,1 8 0 0,0
16.12.2018 16:00:00 1,5 -0,5 1,4 0,2 1,5 6,9 16 9 26 14 SSE 1011,8 10 0 0,0
16.12.2018 15:00:00 1,3 -0,8 1,3 0,2 1,5 7,0 18 10 26 14 SSE 1011,5 9 0 0,0
16.12.2018 14:00:00 0,7 -1,3 0,8 0,2 1,5 7,0 20 11 31 17 SSE 1011,5 8 0 0,0
16.12.2018 13:00:00 0,4 -1,8 0,5 0,2 1,5 7,0 22 12 33 18 SSE 1011,5 9 0 0,0
16.12.2018 12:00:00 0,2 -2,3 0,2 0,2 1,5 7,0 21 11 36 20 SSE 1011,7 10 0 0,0
16.12.2018 11:00:00 -0,1 -2,7 -0,1 0,2 1,5 7,0 20 11 41 22 SSE 1011,8 13 0 0,0
16.12.2018 10:00:00 -0,2 -3,0 -0,3 0,1 1,5 7,0 31 17 44 24 SSE 1011,6 10 0 0,0
16.12.2018 09:00:00 -0,4 -3,4 -0,6 0,1 1,6 7,0 24 13 41 22 SSE 1011,2 10 0 0,0
16.12.2018 08:00:00 -0,7 -3,4 -0,9 0,1 1,6 7,1 28 15 44 24 SSE 1010,8 10 0 0,0
16.12.2018 07:00:00 -1,0 -3,4 -1,1 0,1 1,6 7,1 28 15 46 25 SSE 1010,9 8 0 0,0
16.12.2018 06:00:00 -1,4 -3,0 -1,4 0,1 1,6 7,1 24 13 44 24 SSE 1011,2 3,6 0 0,1
16.12.2018 05:00:00 -1,1 -3,3 -1,4 0,1 1,6 7,1 26 14 44 24 SSE 1011,5 3,2 0 0,5
16.12.2018 04:00:00 -0,7 -3,9 -0,9 0,1 1,6 7,1 28 15 51 28 SSE 1012,2 10 0 0,1
16.12.2018 03:00:00 0,4 -5,7 0,2 0,1 1,6 7,1 29 16 53 28 SSE 1013,2 8 0 0,0
16.12.2018 02:00:00 0,4 -6,0 0,1 0,1 1,7 7,2 36 19 59 32 SSE 1013,6 22 0 0,0
16.12.2018 01:00:00 0,4 -6,3 0,0 0,1 1,7 7,2 24 13 50 27 SSE 1014,6 22 0 0,0
16.12.2018 00:00:00 0,1 -6,0 -0,4 0,1 1,7 7,2 32 17 56 30 SSE 1014,5 25 0 0,0
15.12.2018 23:00:00 0,1 -5,9 -0,5 0,2 1,8 7,2 37 20 57 31 SE 1015,9 10 0 0,0
15.12.2018 22:00:00 -0,2 -5,7 -1,4 0,2 1,8 7,2 29 15 46 25 SE 1017,1 22 0 0,0
15.12.2018 21:00:00 -0,1 -5,5 -1,5 0,3 1,9 7,2 28 15 48 26 SE 1017,8 10 0 0,0
15.12.2018 20:00:00 0,0 -5,8 -1,1 0,4 1,9 7,3 26 14 48 26 SSE 1018,7 10 0 0,0
15.12.2018 19:00:00 0,2 -5,7 -1,1 0,5 1,9 7,3 28 15 44 24 SSE 1020,2 10 0 0,0
15.12.2018 18:00:00 0,4 -5,5 -0,7 0,5 2,0 7,3 21 12 44 24 SE 1021,3 26 0 0,0
15.12.2018 17:00:00 0,7 -5,8 -0,6 0,6 2,0 7,3 26 14 42 23 SE 1021,9 10 0 0,0
15.12.2018 16:00:00 1,3 -5,6 0,7 0,6 2,0 7,3 26 14 42 23 SSE 1022,8 10 0 0,0
15.12.2018 15:00:00 1,4 -5,4 1,2 0,7 2,0 7,3 21 12 41 22 SSE 1023,7 30 0 0,0
15.12.2018 14:00:00 1,2 -5,2 1,0 0,6 2,0 7,3 24 13 47 25 SE 1024,3 27 0 0,0
15.12.2018 13:00:00 1,1 -5,1 1,0 0,6 2,0 7,4 22 12 32 17 SE 1024,8 24 0 0,0
15.12.2018 12:00:00 1,0 -5,0 0,8 0,6 2,0 7,4 22 12 35 19 SE 1025,8 10 0 0,0
15.12.2018 11:00:00 0,9 -5,2 0,6 0,6 2,0 7,4 14 8 26 14 ESE 1026,6 18 0 0,0
15.12.2018 10:00:00 0,8 -6,0 0,3 0,6 2,0 7,4 16 9 28 15 SE 1026,5 10 0 0,0
15.12.2018 09:00:00 0,6 -6,4 0,2 0,6 2,1 7,4 17 9 31 17 SSE 1026,2 20 0 0,0
15.12.2018 08:00:00 0,6 -6,2 0,1 0,6 2,1 7,4 11 6 23 12 SSE 1026,4 10 0 0,0
15.12.2018 07:00:00 0,6 -6,5 0,1 0,6 2,1 7,5 16 9 26 14 SSE 1026,3 30 0 0,0
15.12.2018 06:00:00 0,6 -6,3 0,0 0,6 2,1 7,5 14 7 21 12 SE 1026,3 45 0 0,0
15.12.2018 05:00:00 0,7 -6,0 0,0 0,6 2,2 7,5 13 7 21 11 ESE 1026,4 10 0 0,0
15.12.2018 04:00:00 0,7 -5,6 -0,1 0,6 2,2 7,5 10 5 16 9 ESE 1026,8 40 0 0,0
15.12.2018 03:00:00 0,8 -5,8 -0,1 0,5 2,3 7,5 9 5 15 8 ESE 1026,9 40 0 0,0
15.12.2018 02:00:00 0,8 -6,3 -0,2 0,5 2,3 7,5 11 6 21 11 ESE 1026,4 10 0 0,0
15.12.2018 01:00:00 0,9 -6,0 0,1 0,7 2,4 7,6 16 9 22 12 SE 1026,0 10 0 0,0
15.12.2018 00:00:00 0,9 -5,7 -0,1 0,8 2,5 7,6 9 5 20 11 E 1025,7 10 0 0,0
14.12.2018 23:00:00 1,1 -5,4 0,1 0,9 2,6 7,6 11 6 16 9 E 1025,8 10 0 0,0
14.12.2018 22:00:00 1,2 -4,5 0,3 1,2 2,6 7,6 11 6 22 12 E 1025,9 10 0 0,0
14.12.2018 21:00:00 0,5 -2,0 -0,3 1,3 2,6 7,6 7 4 10 5 ENE 1025,9 25 0 0,0
14.12.2018 20:00:00 1,3 -2,1 0,6 1,4 2,7 7,6 6 4 11 6 ENE 1025,5 20 0 0,0
14.12.2018 19:00:00 1,5 -2,3 1,0 1,4 2,7 7,7 8 4 9 5 NE 1025,2 10 0 0,0
14.12.2018 18:00:00 1,6 -2,4 1,2 1,5 2,7 7,7 8 4 15 8 NE 1024,5 10 0 0,0
14.12.2018 17:00:00 1,8 -2,3 1,3 1,7 2,8 7,7 11 6 16 9 NE 1024,4 10 0 0,0
14.12.2018 16:00:00 2,0 -2,2 1,6 1,9 2,7 7,7 12 7 16 9 NE 1024,0 17 0 0,0
14.12.2018 15:00:00 2,2 -3,2 2,0 2,0 2,7 7,7 10 5 16 9 NE 1023,3 22 0 0,0
14.12.2018 14:00:00 2,3 -3,4 2,1 2,1 2,6 7,8 13 7 21 11 NE 1023,0 10 0 0,0
14.12.2018 13:00:00 2,2 -2,1 2,4 2,0 2,5 7,8 15 8 22 12 ENE 1023,0 10 0 0,0
14.12.2018 12:00:00 1,8 -1,9 1,8 1,6 2,4 7,8 11 6 15 8 ENE 1023,2 10 0 0,0
14.12.2018 11:00:00 1,6 -1,3 1,4 1,3 2,3 7,8 11 6 21 11 ENE 1023,5 10 0 0,0
14.12.2018 10:00:00 1,3 -1,5 1,0 1,1 2,3 7,8 9 5 15 8 ENE 1023,1 10 0 0,0
14.12.2018 09:00:00 1,1 -1,6 0,8 1,0 2,3 7,8 10 5 15 8 NNE 1022,7 12 0 0,0
14.12.2018 08:00:00 0,9 -1,4 0,4 0,9 2,3 7,9 8 4 13 7 NE 1022,1 12 0 0,0
14.12.2018 07:00:00 0,8 -1,3 0,3 0,9 2,3 7,9 9 5 15 8 ENE 1021,7 10 0 0,0
14.12.2018 06:00:00 0,9 -1,3 0,5 0,9 2,3 7,9 8 4 15 8 NE 1021,7 10 0 0,0
14.12.2018 05:00:00 0,7 -1,2 0,3 0,8 2,3 7,9 10 5 16 9 ENE 1021,3 15 0 0,0
14.12.2018 04:00:00 0,7 -1,1 0,3 0,8 2,4 7,9 11 6 18 10 ENE 1021,5 15 0 0,0
14.12.2018 03:00:00 0,9 -1,0 0,5 0,8 2,4 8,0 8 4 13 7 NE 1021,8 10 0 0,0
14.12.2018 02:00:00 0,6 -1,1 0,3 0,7 2,4 8,0 7 4 11 6 NE 1021,6 15 0 0,0
14.12.2018 01:00:00 0,4 -1,4 0,1 0,7 2,5 8,0 8 4 11 6 NE 1021,7 10 0 0,0
14.12.2018 00:00:00 0,7 -1,6 0,1 0,8 2,5 8,0 8 5 16 9 NE 1021,7 20 0 0,0
13.12.2018 23:00:00 1,1 -1,8 0,6 0,8 2,6 8,0 11 6 18 10 NE 1021,5 20 0 0,0
13.12.2018 22:00:00 1,8 -1,9 1,2 0,8 2,6 8,0 11 6 22 12 NNE 1021,5 10 0 0,0
13.12.2018 21:00:00 1,8 -1,8 1,2 0,8 2,7 8,1 10 5 13 7 NNE 1021,2 25 0 0,0
13.12.2018 20:00:00 0,6 -2,5 -0,5 0,8 2,8 8,1 8 4 16 9 ENE 1020,9 10 0 0,0
13.12.2018 19:00:00 0,8 -2,8 -0,6 0,9 2,9 8,1 13 7 20 11 NE 1020,9 10 0 0,0
13.12.2018 18:00:00 1,0 -3,0 -0,4 0,9 3,1 8,1 13 7 25 14 NE 1020,8 10 0 0,0
13.12.2018 17:00:00 1,5 -3,0 0,2 1,4 3,2 8,1 18 10 29 16 NE 1020,8 35 0 0,0
13.12.2018 16:00:00 2,3 -3,0 1,7 2,6 3,3 8,2 21 11 31 17 NE 1020,6 10 55 0,0
13.12.2018 15:00:00 2,8 -2,5 3,4 3,4 3,1 8,2 18 10 28 15 NE 1020,4 10 60 0,0
13.12.2018 14:00:00 3,2 -3,2 4,4 3,5 2,9 8,2 20 11 31 17 ENE 1020,6 45 60 0,0
13.12.2018 13:00:00 3,1 -2,7 4,8 2,9 2,7 8,2 15 8 29 15 ENE 1021,2 10 60 0,0
13.12.2018 12:00:00 2,5 -2,3 3,8 1,8 2,7 8,2 15 8 22 12 NE 1021,6 10 60 0,0
13.12.2018 11:00:00 1,6 -1,6 2,2 0,8 2,7 8,2 11 6 21 11 NE 1022,3 10 60 0,0
13.12.2018 10:00:00 0,8 -1,7 0,5 0,8 2,7 8,3 12 7 21 11 NE 1022,3 22 39 0,0
13.12.2018 09:00:00 0,1 -1,7 -1,0 0,8 2,8 8,3 14 8 16 9 NE 1022,2 20 0 0,0
13.12.2018 08:00:00 0,3 -0,8 -1,2 0,8 2,9 8,3 9 5 16 9 NE 1022,0 10 0 0,0
13.12.2018 07:00:00 0,6 -0,8 -0,8 0,9 2,9 8,3 8 4 11 6 NNE 1021,8 10 0 0,0
13.12.2018 06:00:00 1,0 -0,4 -0,7 0,9 3,0 8,3 9 5 14 8 NE 1022,0 10 0 0,0
13.12.2018 05:00:00 1,1 -0,4 -0,7 0,9 3,1 8,3 11 6 19 10 NE 1022,1 10 0 0,0
13.12.2018 04:00:00 1,2 0,0 -0,2 1,1 3,3 8,4 13 7 16 9 NE 1022,9 18 0 0,0
13.12.2018 03:00:00 2,3 0,6 1,2 1,5 3,4 8,4 13 7 21 11 NE 1023,2 20 0 0,0
13.12.2018 02:00:00 2,6 0,6 1,4 1,9 3,4 8,4 16 8 21 11 NE 1023,4 22 0 0,0
13.12.2018 01:00:00 3,0 0,8 2,4 2,0 3,3 8,4 13 7 16 9 NE 1024,0 10 0 0,0
13.12.2018 00:00:00 3,1 0,8 2,8 1,9 3,3 8,4 13 7 21 11 NE 1024,4 10 0 0,0
12.12.2018 23:00:00 2,6 0,3 1,9 1,4 3,4 8,4 13 7 16 9 NE 1024,8 10 0 0,0
12.12.2018 22:00:00 1,4 -0,6 0,5 1,1 3,5 8,4 13 7 27 15 ENE 1025,0 10 0 0,0
12.12.2018 21:00:00 1,6 -1,4 -0,3 1,1 3,7 8,5 9 5 21 11 NE 1024,9 10 0 0,0
12.12.2018 20:00:00 0,7 -1,8 -1,7 1,3 4,0 8,5 13 7 18 10 E 1025,1 10 0 0,0
12.12.2018 19:00:00 0,5 -1,3 -1,3 1,9 4,2 8,5 13 7 16 9 ENE 1025,1 10 0 0,0
12.12.2018 18:00:00 2,5 -0,1 0,8 2,5 4,4 8,5 10 6 16 9 NE 1025,1 30 0 0,0
12.12.2018 17:00:00 3,2 0,3 1,7 3,4 4,5 8,5 11 6 13 7 NE 1025,0 10 0 0,0
12.12.2018 16:00:00 4,1 0,6 3,4 4,0 4,5 8,5 11 6 18 10 NE 1024,9 10 0 0,0
12.12.2018 15:00:00 4,4 0,9 3,9 4,4 4,3 8,6 11 6 16 9 NE 1025,1 10 0 0,0
12.12.2018 14:00:00 4,6 0,8 4,2 4,9 4,1 8,6 13 7 22 12 NNE 1025,6 10 18 0,0
12.12.2018 13:00:00 4,5 1,4 4,8 4,0 3,8 8,6 8 4 13 7 NNE 1026,0 10 0 0,0
12.12.2018 12:00:00 4,1 1,8 4,1 3,5 3,6 8,6 8 4 13 7 NE 1026,5 10 0 0,0
12.12.2018 11:00:00 3,1 2,0 3,0 2,6 3,5 8,6 8 4 11 6 NE 1026,7 20 0 0,0
12.12.2018 10:00:00 1,4 1,0 0,8 1,7 3,4 8,6 6 3 9 5 ENE 1026,5 12 0 0,0
12.12.2018 09:00:00 0,4 0,4 -0,3 1,3 3,5 8,6 2 1 8 4 NNE 1026,2 8 0 0,0
12.12.2018 08:00:00 -0,8 -1,2 -2,3 1,2 3,7 8,6 2 1 8 4 - 1025,9 8 0 0,0
12.12.2018 07:00:00 0,1 -0,3 -1,9 1,6 3,8 8,7 4 2 5 3 N 1025,5 15 0 0,0
12.12.2018 06:00:00 1,0 0,7 0,4 1,9 3,8 8,7 2 1 8 4 NW 1025,3 9 0 0,0
12.12.2018 05:00:00 0,0 -0,4 -0,1 1,7 3,9 8,7 8 4 8 4 ENE 1025,5 3,0 0 0,0
12.12.2018 04:00:00 -1,1 -1,5 -1,3 1,3 4,0 8,7 0 0 4 2 N 1025,3 1,1 0 0,0
12.12.2018 03:00:00 -0,7 -1,0 -2,8 1,5 4,2 8,7 0 0 5 3 N 1025,3 2,0 0 0,0
12.12.2018 02:00:00 -0,1 -0,6 -1,2 1,9 4,4 8,7 2 1 4 2 - 1024,8 8 0 0,0
12.12.2018 01:00:00 0,0 -0,1 -2,1 1,8 4,7 8,7 2 1 4 2 SE 1025,0 10 0 0,0
12.12.2018 00:00:00 0,2 -0,2 -3,2 2,4 4,9 8,7 2 1 8 4 W 1024,9 10 0 0,0
11.12.2018 23:00:00 2,1 1,7 -0,3 2,9 5,1 8,8 4 2 5 3 NW 1024,8 10 0 0,0
11.12.2018 22:00:00 3,2 2,0 -1,3 3,4 5,3 8,8 4 2 9 5 W 1024,7 10 0 0,0
11.12.2018 21:00:00 3,7 2,0 2,1 4,1 5,4 8,8 2 1 13 7 - 1024,7 10 0 0,0
11.12.2018 20:00:00 4,9 2,2 3,9 4,4 5,5 8,8 9 5 14 7 W 1024,6 10 0 0,0
11.12.2018 19:00:00 4,8 1,7 3,6 4,6 5,6 8,8 9 5 15 8 WNW 1024,3 10 0 0,0
11.12.2018 18:00:00 5,4 1,7 4,5 4,8 5,6 8,8 9 5 18 10 WNW 1024,0 10 0 0,0
11.12.2018 17:00:00 5,5 2,5 4,6 5,1 5,7 8,8 9 5 16 9 WNW 1023,9 10 0 0,0
11.12.2018 16:00:00 6,1 2,7 5,2 5,8 5,6 8,9 13 7 21 11 WNW 1023,7 40 0 0,0
11.12.2018 15:00:00 7,2 2,9 8,2 6,4 5,4 8,9 17 9 26 14 W 1023,6 40 34 0,0
11.12.2018 14:00:00 6,3 2,5 5,8 5,8 5,1 8,9 13 7 29 16 WNW 1023,9 30 1 0,1

tt = Température de l'air
td = dewpoint
tt 5cm = Température de l'air 5cm
tt -5cm = Température de l'air -5cm
tt -20cm = Température de l'air -20cm
tt -100cm = Température de l'air -100cm
ff = Vitesse du vent
fx = gusts
dd = Direction du vent
ppp = reduced air pressure
vv = visibility
sd = Ensoleillement
rr = Quantités de précipitations

stations d'obs. à proximité